Weather History for KAVC - April, 2014

Change the Weather History Date:

Saturday, April 26, 2014

  Actual Average Record
Temperature  
Mean Temperature 64 °F -  
Max Temperature 78 °F - - ()
Min Temperature 51 °F - - ()
Growing Degree Days 14 (Base 50)    
Moisture  
Dew Point 48 °F    
Average Humidity 56    
Maximum Humidity 100    
Minimum Humidity 30    
Precipitation  
Precipitation 0.00 in - - ()
Sea Level Pressure  
Sea Level Pressure 29.94 in    
Wind  
Wind Speed 5 mph (WSW)    
Max Wind Speed 16 mph    
Max Gust Speed 23 mph    
Visibility 10 miles    
Events      
T = Trace of Precipitation, MM = Missing Value Source: NWS Daily Summary

Daily Weather History Graph

Daily Weather History Graph

Search for Another Location

Airport or City:

Trip Planner

Search our weather history database for the weather conditions in past years. The results will help you decide how hot, cold, wet, or windy it might be!

Date:

Astronomy

Apr. 26, 2014 Rise Set
Actual Time 6:24 AM EDT 7:56 PM EDT
Civil Twilight 5:56 AM EDT 8:23 PM EDT
Nautical Twilight 5:24 AM EDT 8:56 PM EDT
Astronomical Twilight 4:49 AM EDT 9:31 PM EDT
Moon 4:42 AM EDT (4/26) 5:26 PM EDT (4/26)
Length of Visible Light 14h 26m
Length of Day
13h 32m
Waning Crescent, 8% of the Moon is Illuminated
Apr 26
Waning Crescent
Apr 29
New
May 6
First Quarter
May 14
Full
May 21
Last Quarter

Hourly Weather History & Observations

Time (EDT) Temp. Dew Point Humidity Pressure Visibility Wind Dir Wind Speed Gust Speed Precip Events Conditions
12:15 AM 60.8 °F 60.8 °F 100% 29.84 in 10.0 mi West 6.9 mph - N/A   Clear
12:35 AM 60.8 °F 59.0 °F 94% 29.85 in 10.0 mi West 4.6 mph - N/A   Clear
12:55 AM 60.8 °F 57.2 °F 88% 29.85 in 10.0 mi West 3.5 mph - N/A   Clear
1:15 AM 60.8 °F 57.2 °F 88% 29.85 in 10.0 mi West 3.5 mph - N/A   Clear
1:35 AM 60.8 °F 55.4 °F 82% 29.86 in 10.0 mi West 5.8 mph - N/A   Unknown
1:55 AM 59.0 °F 55.4 °F 88% 29.86 in 10.0 mi WNW 3.5 mph - N/A   Clear
2:15 AM 57.2 °F 55.4 °F 94% 29.86 in 10.0 mi West 5.8 mph - N/A   Clear
2:35 AM 57.2 °F 55.4 °F 94% 29.87 in 10.0 mi Calm Calm - N/A   Clear
2:55 AM 57.2 °F 53.6 °F 88% 29.87 in 10.0 mi Calm Calm - N/A   Clear
3:15 AM 55.4 °F 51.8 °F 88% 29.88 in 10.0 mi Calm Calm - N/A   Clear
3:35 AM 55.4 °F 51.8 °F 88% 29.89 in 10.0 mi Calm Calm - N/A   Clear
3:55 AM 55.4 °F 51.8 °F 88% 29.89 in 10.0 mi WNW 3.5 mph - N/A   Clear
4:15 AM 55.4 °F 48.2 °F 77% 29.90 in 10.0 mi Calm Calm - N/A   Clear
4:35 AM 55.4 °F 46.4 °F 72% 29.90 in 10.0 mi WNW 3.5 mph - N/A   Clear
4:55 AM 55.4 °F 44.6 °F 67% 29.92 in 10.0 mi West 5.8 mph - N/A   Clear
5:15 AM 53.6 °F 44.6 °F 72% 29.92 in 10.0 mi West 4.6 mph - N/A   Clear
5:35 AM 53.6 °F 44.6 °F 72% 29.93 in 10.0 mi Calm Calm - N/A   Clear
5:55 AM 51.8 °F 44.6 °F 76% 29.94 in 10.0 mi Calm Calm - N/A   Unknown
6:15 AM 51.8 °F 44.6 °F 76% 29.95 in 10.0 mi Calm Calm - N/A   Unknown
6:35 AM 51.8 °F 42.8 °F 71% 29.96 in 10.0 mi Calm Calm - N/A   Clear
6:55 AM 51.8 °F 42.8 °F 71% 29.97 in 10.0 mi West 4.6 mph - N/A   Clear
7:15 AM 53.6 °F 42.8 °F 67% 29.98 in 10.0 mi Calm Calm - N/A   Clear
7:35 AM 55.4 °F 42.8 °F 63% 30.00 in 10.0 mi West 4.6 mph - N/A   Scattered Clouds
7:55 AM 55.4 °F 44.6 °F 67% 30.00 in 10.0 mi West 3.5 mph - N/A   Clear
8:15 AM 55.4 °F 44.6 °F 67% 30.01 in 10.0 mi West 3.5 mph - N/A   Clear
8:35 AM 57.2 °F 44.6 °F 63% 30.01 in 10.0 mi West 4.6 mph - N/A   Clear
8:55 AM 59.0 °F 44.6 °F 59% 30.02 in 10.0 mi West 3.5 mph - N/A   Clear
9:15 AM 60.8 °F 44.6 °F 55% 30.03 in 10.0 mi WSW 4.6 mph - N/A   Clear
9:35 AM 62.6 °F 46.4 °F 55% 30.03 in 10.0 mi West 3.5 mph - N/A   Unknown
10:15 AM 64.4 °F 46.4 °F 52% 30.03 in 10.0 mi WSW 4.6 mph - N/A   Clear
10:35 AM 66.2 °F 46.4 °F 49% 30.03 in 10.0 mi West 5.8 mph - N/A   Unknown
10:55 AM 68.0 °F 46.4 °F 46% 30.02 in 10.0 mi WSW 6.9 mph - N/A   Clear
11:15 AM 69.8 °F 46.4 °F 43% 30.02 in 10.0 mi WSW 6.9 mph - N/A   Clear
11:35 AM 69.8 °F 46.4 °F 43% 30.01 in 10.0 mi SW 5.8 mph - N/A   Clear
11:55 AM 71.6 °F 44.6 °F 38% 30.01 in 10.0 mi SW 4.6 mph - N/A   Clear
12:15 PM 71.6 °F 46.4 °F 41% 30.00 in 10.0 mi West 3.5 mph - N/A   Clear
12:35 PM 71.6 °F 48.2 °F 43% 29.98 in 10.0 mi SSW 5.8 mph - N/A   Clear
12:55 PM 73.4 °F 48.2 °F 41% 29.98 in 10.0 mi SW 9.2 mph - N/A   Clear
1:15 PM 73.4 °F 48.2 °F 41% 29.98 in 10.0 mi SSW 8.1 mph - N/A   Clear
1:35 PM 75.2 °F 48.2 °F 38% 29.98 in 10.0 mi WSW 5.8 mph - N/A   Clear
1:55 PM 75.2 °F 46.4 °F 36% 29.96 in 1.0 mi WSW 6.9 mph - N/A   Clear
2:15 PM 75.2 °F 46.4 °F 36% 29.96 in 10.0 mi SW 10.4 mph - N/A   Clear
2:35 PM 75.2 °F 46.4 °F 36% 29.96 in 1.0 mi West 5.8 mph - N/A   Clear
2:55 PM 77.0 °F 46.4 °F 34% 29.95 in 10.0 mi SSW 5.8 mph - N/A   Clear
3:20 PM 78.8 °F 46.4 °F 32% 29.95 in 10.0 mi SSW 8.1 mph 17.3 mph N/A   Clear
3:35 PM 78.8 °F 46.4 °F 32% 29.94 in 10.0 mi SW 11.5 mph 16.1 mph N/A   Clear
3:55 PM 78.8 °F 46.4 °F 32% 29.93 in 10.0 mi SSW 10.4 mph 20.7 mph N/A   Clear
4:15 PM 78.8 °F 46.4 °F 32% 29.92 in 10.0 mi North - - N/A   Clear
4:35 PM 78.8 °F 46.4 °F 32% 29.92 in 10.0 mi SW 16.1 mph 23.0 mph N/A   Clear
4:55 PM 78.8 °F 46.4 °F 32% 29.91 in 10.0 mi SSW 13.8 mph 19.6 mph N/A   Clear
5:15 PM 78.8 °F 46.4 °F 32% 29.91 in 10.0 mi SSW 10.4 mph 13.8 mph N/A   Clear
5:35 PM 78.8 °F 44.6 °F 30% 29.91 in 10.0 mi WSW 11.5 mph 21.9 mph N/A   Clear
5:55 PM 78.8 °F 44.6 °F 30% 29.91 in 10.0 mi WSW 11.5 mph 17.3 mph N/A   Clear
6:15 PM 78.8 °F 46.4 °F 32% 29.91 in 10.0 mi SW 6.9 mph 18.4 mph N/A   Clear
6:35 PM 78.8 °F 44.6 °F 30% 29.90 in 10.0 mi SSW 8.1 mph 16.1 mph N/A   Clear
6:55 PM 78.8 °F 44.6 °F 30% 29.90 in 10.0 mi SSW 9.2 mph - N/A   Clear
7:15 PM 75.2 °F 46.4 °F 36% 29.90 in 10.0 mi SSW 8.1 mph - N/A   Clear
7:35 PM 73.4 °F 46.4 °F 38% 29.90 in 10.0 mi SSW 5.8 mph - N/A   Clear
7:55 PM 69.8 °F 48.2 °F 46% 29.90 in 10.0 mi SSW 6.9 mph - N/A   Clear
8:15 PM 68.0 °F 48.2 °F 49% 29.90 in 10.0 mi SSW 6.9 mph - N/A   Clear
8:35 PM 66.2 °F 48.2 °F 52% 29.91 in 10.0 mi SSW 5.8 mph - N/A   Clear
8:55 PM 66.2 °F 48.2 °F 52% 29.91 in 10.0 mi SSW 6.9 mph - N/A   Clear
9:15 PM 66.2 °F 48.2 °F 52% 29.92 in 10.0 mi SSW 5.8 mph - N/A   Clear
9:35 PM 66.2 °F 46.4 °F 49% 29.92 in 10.0 mi SSW 5.8 mph - N/A   Clear
10:15 PM 64.4 °F 46.4 °F 52% 29.93 in 10.0 mi SSW 5.8 mph - N/A   Clear
10:35 PM 64.4 °F 46.4 °F 52% 29.93 in 10.0 mi SSW 5.8 mph - N/A   Clear
10:55 PM 64.4 °F 46.4 °F 52% 29.93 in 10.0 mi SSW 4.6 mph - N/A   Clear
11:15 PM 64.4 °F 46.4 °F 52% 29.93 in 10.0 mi SW 4.6 mph - N/A   Clear
11:35 PM 62.6 °F 46.4 °F 55% 29.93 in 10.0 mi SW 4.6 mph - N/A   Clear
11:55 PM 64.4 °F 46.4 °F 52% 29.94 in 10.0 mi SW 5.8 mph - N/A   Clear